Location: Mountain Lakes
(44.1215°N, 71.9554°W)
Time: 03:42:20
(UTC+00:00)

DMSP B5D1-3 - Pass Details

Date: 08 September 2024
Orbit: 761 x 775 km, 98.5° (Epoch: 11 October)

Event Time Altitude Azimuth Distance (km) Brightness Sun altitude
Rises 23:41:45 0° 14° (NNE) 3,235 7.7 -6.4°
Reaches altitude 10° 23:44:04 10° 16° (NNE) 2,304 7.0 -6.8°
Maximum altitude 23:49:09 81° 104° (ESE) 777 4.5 -7.7°
Drops below altitude 10° 23:54:12 10° 191° (SSW) 2,290 6.9 -8.6°
Sets 23:56:29 0° 193° (SSW) 3,212 7.7 -9.0°
